Location: Davidschlag
(48.4333°N, 14.2833°E)
Time: 18:16:08
(UTC+00:00)

Cosmos 2219 - Pass Details

Date: 27 February 2020
Orbit: 832 x 862 km, 71.1° (Epoch: 28 March)

Event Time Altitude Azimuth Distance (km) Brightness Sun altitude
Rises 18:41:49 0° 332° (NNW) 3,443 6.9 -20.5°
Reaches altitude 10° 18:44:17 10° 334° (NNW) 2,505 6.1 -20.9°
Maximum altitude 18:50:04 79° 61° (ENE) 883 3.1 -21.8°
Enters shadow 18:52:19 39° 142° (SE) 1,270 3.7 -22.2°
